SCP
0 0 0 0 0 0 0 0 0 0 0 -0 -0 -0 -0 -0 -0 0 0 0 -0 -0 -0 0 0 0 0 -0 -0 0 -0 -0 0 0 0 0 0 0 0 0 0 0 0 -0 0
0 0 0 0 0 0 0 0 0 0 0 0 -0 -0 -0 -0 0 0 0 0 0 -0 -0 -0 -0 0 -0 -0 -0 -0 -0 -0 0 0 0 0 0 0 0 0 0 0 -0 -0 0
0 0 0 0 0 0 0 0 0 0 0 0 0 0 0 0 0 0 0 -0 0 0 0 0 0 0 0 0 0 -0 -0 -0 0 0 0 0 0 0 0 0 -0 -0 -0 0 0
0 0 0 0 0 0 0 0 0 0 0 0 0 0 0 0 0 0 0 0 0 0 0 0 0 -0 0 0 0 0 0 0 0 0 0 0 0 -0 0 0 -0 -0 -0 0 0
0 0 0 0 0 0 0 0 0 0 0 0 0 0 0 0 0 0 0 0 0 0 0 0 0 0 0 0 0 0 0 0 0 0 0 0 0 -0 -0 -0 -0 -0 0 0 0
0 0 0 0 0 0 0 0 0 0 0 0 0 0 0 0 0 0 0 0 0 0 0 0 0 0 0 0 0 0 0 0 0 0 0 0 0 0 -0 0 0 0 0 0 0
0 0 0 0 0 0 0 0 0 0 0 0 0 0 0 0 0 0 0 0 0 0 0 0 0 0 0 0 0 0 0 0 0 0 0 0 0 0 0 0 0 0 0 0 0
0 0 0 0 0 0 0 0 0 0 0 0 0 0 0 0 0 0 0 0 0 0 0 0 0 0 0 0 0 0 0 0 0 0 0 0 0 0 0 0 0 0 0 0 0
0 0 0 0 0 0 0 0 0 0 0 0 0 0 0 0 0 0 0 0 0 0 0 0 0 0 0 0 0 0 0 0 0 0 0 0 0 0 0 0 0 0 0 0 0
0 0 0 0 0 0 0 0 -0 0 0 0 0 0 0 0 0 0 0 0 0 0 0 0 0 0 0 0 0 0 0 0 0 0 0 0 0 0 0 0 0 0 0 0 0
0 0 0 0 0 0 0 0 0 0 0 0 0 0 0 0 0 0 0 0 0 0 0 0 0 0 0 0 0 0 0 0 0 0 0 0 0 0 0 0 0 0 0 0 0
0 0 0 0 0 0 0 0 0 0 0 0 0 0 0 0 0 0 0 0 0 0 0 0 0 0 0 0 0 0 0 0 0 0 0 0 0 0 0 0 0 0 0 0 0
0 0 0 0 0 0 0 0 0 0 0 0 0 0 0 0 0 0 0 0 0 0 0 0 0 0 0 0 0 0 0 0 0 0 0 0 0 0 0 0 0 0 0 0 0
0 0 0 0 0 0 0 0 0 0 0 0 0 0 0 0 0 0 0 0 0 0 0 0 0 0 0 0 0 0 0 0 0 0 0 0 -0 0 0 0 0 0 0 0 0
0 0 0 0 0 0 0 0 0 0 0 0 0 0 0 0 0 0 0 0 0 0 0 0 0 0 0 0 0 0 0 0 0 0 0 0 0 0 0 0 0 0 0 0 0
0 0 0 0 0 0 0 0 0 0 0 0 0 0 0 0 0 0 0 0 0 0 0 0 0 0 0 0 0 0 0 0 0 0 0 0 0 0 0 0 0 0 0 0 0
0 0 0 0 0 0 0 0 0 0 0 0 0 0 0 0 0 0 0 0 0 0 0 0 0 0 0 0 0 0 0 0 0 0 0 0 0 0 0 0 0 0 0 0 0
0 0 0 0 0 0 0 0 0 0 0 0 0 0 0 0 0 0 0 0 0 0 0 0 0 0 0 0 0 0 0 0 0 0 0 0 0 0 0 0 0 0 0 0 0
0 0 0 0 0 0 0 0 0 0 0 0 0 0 0 0 0 0 0 0 0 0 0 0 0 0 0 0 0 0 0 0 0 0 0 0 0 0 0 0 0 0 0 0 0
0 0 0 0 0 0 0 0 0 0 0 0 0 0 0 0 0 0 0 0 0 0 0 0 0 0 0 0 0 0 0 0 0 0 0 0 0 0 0 0 0 0 0 0 0
0 0 0 0 0 0 0 0 0 0 0 0 0 0 0 0 0 0 0 0 0 0 0 0 0 0 0 0 0 0 0 0 0 0 0 0 0 0 0 0 0 0 0 0 0
0 0 0 0 0 0 0 0 0 0 0 0 0 0 0 0 0 0 0 0 0 0 0 0 0 0 0 0 0 0 0 0 0 0 0 0 0 0 0 0 0 0 0 0 0
0 0 0 0 0 0 0 0 0 0 0 0 0 0 0 0 0 0 0 0 0 0 0 0 0 0 0 0 0 0 0 0 0 0 0 0 0 0 0 0 0 0 0 0 0
0 0 0 0 0 0 0 0 0 0 0 0 0 0 0 0 0 0 0 0 0 0 0 0 0 0 0 0 0 0 0 0 0 0 0 0 0 0 0 0 0 0 0 0 0
0 0 0 0 0 0 0 0 0 0 0 0 0 0 0 0 0 0 0 0 0 0 0 0 0 0 0 0 0 0 0 0 0 0 0 0 0 -0 0 0 0 0 0 0 0
0 0 0 0 0 0 0 0 0 0 0 0 0 0 0 0 0 0 0 0 0 0 0 0 0 0 0 0 0 0 0 0 0 0 0 0 0 0 0 0 0 0 0 0 0
0 0 0 0 0 0 0 0 0 0 0 0 0 0 0 0 0 0 0 0 0 0 0 0 0 0 0 0 0 0 0 0 0 0 0 0 0 0 0 0 0 0 0 0 0
Wind_Speed_500mb
12 11 9 8 6 6 7 7 8 9 9 9 7 4 5 11 14 12 9 10 16 21 22 26 27 21 16 9 6 3 9 5 10 14 8 16 9 8 10 16 8 6 12 16 12
12 14 14 12 10 8 7 8 8 9 9 8 6 3 8 9 11 10 6 17 22 24 27 26 24 18 9 6 6 10 7 6 3 6 11 18 10 19 10 12 9 18 19 14 10
9 11 14 15 14 12 10 9 8 8 8 8 5 3 7 11 7 4 8 16 24 27 27 29 21 13 9 8 10 7 7 8 8 9 32 24 14 9 20 6 18 27 25 15 6
12 11 12 12 14 14 12 12 10 8 9 7 4 2 8 12 6 4 8 16 23 27 28 27 18 10 8 8 7 12 11 3 3 15 19 24 23 11 21 8 17 27 21 10 5
10 12 12 12 12 13 13 13 12 10 8 7 4 2 11 7 6 1 8 16 22 28 26 25 21 13 12 11 8 8 7 10 12 16 22 25 11 11 18 25 29 27 19 10 3
2 7 11 13 12 13 13 13 14 13 8 4 2 3 9 6 3 2 7 16 21 27 25 25 16 15 19 8 7 10 16 12 8 9 7 7 5 8 24 34 31 25 16 9 3
5 4 5 9 11 14 16 17 14 11 6 3 0 4 6 7 3 6 7 14 22 24 24 23 30 13 20 12 20 25 9 6 3 7 5 7 9 16 26 42 35 28 19 15 7
11 6 9 5 8 11 15 19 15 4 3 3 2 5 7 5 5 7 8 13 19 21 23 22 19 19 11 32 11 8 9 4 5 13 5 11 16 4 31 48 38 32 29 24 14
21 20 16 12 10 11 15 18 9 3 0 3 3 5 7 5 6 8 8 12 19 21 23 24 20 13 17 12 7 9 5 7 4 26 6 9 12 2 43 44 37 37 36 33 20
19 16 15 12 11 9 14 8 4 5 7 8 6 5 6 3 6 9 14 16 10 25 23 11 8 8 6 4 10 13 8 8 8 14 10 9 23 8 45 43 42 42 43 39 26
24 15 13 9 8 9 9 2 1 3 5 3 2 4 7 8 10 9 15 13 24 9 6 4 5 14 20 12 7 12 4 4 5 8 9 15 20 15 44 44 42 43 47 44 30
35 27 22 21 15 10 8 3 4 1 1 4 2 3 5 10 6 12 16 8 8 5 10 11 8 3 14 11 5 4 2 7 2 4 7 4 23 19 35 47 66 60 56 53 41
43 40 35 25 17 10 4 2 3 8 4 3 2 6 3 8 3 9 15 6 5 9 8 10 3 8 3 8 11 5 8 6 4 4 6 8 17 12 11 42 49 63 63 64 52
26 27 25 13 13 12 10 4 4 8 8 4 2 2 5 6 4 7 12 8 7 10 12 4 3 5 3 4 5 7 4 5 9 4 8 3 12 10 8 11 22 48 65 71 59
19 18 18 21 9 12 9 5 4 3 5 2 4 5 7 5 9 4 7 3 11 7 9 7 2 2 4 5 3 5 3 6 5 5 6 6 3 14 2 11 22 43 68 80 66
18 20 22 26 21 12 8 8 5 10 12 1 3 7 6 3 4 8 3 5 9 9 11 4 2 4 4 6 6 8 6 7 8 6 5 18 15 9 12 18 4 31 57 81 71
10 23 29 30 27 22 13 11 8 7 6 5 6 8 7 6 3 4 8 6 9 9 2 5 3 3 4 8 9 5 5 7 8 4 12 6 4 21 18 15 10 34 56 78 72
14 25 32 34 28 28 24 6 8 7 8 5 6 7 9 9 1 4 5 3 8 5 5 11 7 5 2 3 5 8 5 10 14 6 9 2 13 12 6 11 16 44 64 75 74
10 16 33 37 33 31 21 5 15 14 14 17 5 8 2 3 8 6 8 6 11 17 11 8 2 3 8 4 2 7 8 1 6 2 3 11 14 20 6 10 9 39 59 73 78
4 5 26 32 38 32 5 17 9 9 9 7 13 4 11 8 6 6 10 8 6 14 3 9 7 3 5 0 6 4 1 8 5 4 11 11 10 16 11 10 8 19 43 59 74
3 6 21 33 32 15 9 12 10 11 10 11 10 9 8 11 13 8 8 4 5 4 8 6 6 0 5 11 14 3 4 2 3 7 7 7 11 12 7 14 24 27 46 64 76
5 3 11 41 10 7 13 12 7 6 4 5 6 5 10 12 9 9 12 8 6 7 14 7 8 6 14 4 7 4 8 10 7 9 8 5 13 5 6 9 30 42 54 65 75
2 4 10 40 12 8 3 4 2 5 6 7 5 4 4 12 5 9 7 7 12 2 11 9 2 3 9 5 5 8 8 6 2 1 11 4 11 4 9 7 17 32 41 56 68
1 4 6 22 3 6 11 11 21 11 4 6 8 8 7 3 2 10 6 7 16 3 6 12 6 12 12 8 9 9 10 10 17 6 16 34 50 42 21 9 7 27 49 59 69
4 3 6 6 8 3 1 6 24 9 5 11 3 10 12 7 4 10 8 7 4 5 6 5 8 8 12 8 10 10 12 17 23 33 19 26 42 56 33 31 37 49 55 64 73
2 3 7 4 1 13 18 7 8 18 12 9 10 13 11 13 13 13 12 7 9 7 8 1 4 5 8 12 17 27 30 29 36 36 41 43 60 36 69 59 36 52 63 70 81
13 6 5 5 3 6 8 16 9 8 7 20 10 11 12 11 16 9 16 16 15 15 15 11 8 5 9 6 4 17 33 41 19 15 40 34 57 42 38 31 43 51 68 78 88
Wind_Direction_500mb
68 61 47 34 16 359 351 348 354 4 10 35 48 87 121 151 156 159 153 139 136 130 130 134 137 130 122 106 75 97 62 134 181 162 195 173 133 138 138 138 120 122 147 146 186
57 48 43 37 23 9 358 348 344 352 354 11 38 73 156 144 146 144 139 145 143 138 134 142 139 131 95 78 43 70 89 182 220 193 171 174 158 144 147 134 97 122 136 170 223
48 42 34 32 27 14 4 355 345 343 347 345 19 55 164 162 150 136 142 152 152 148 141 146 134 103 78 56 30 56 145 177 7 209 159 148 144 154 141 239 197 186 166 189 246
47 40 25 22 27 24 14 5 350 341 335 329 358 68 157 162 178 181 154 158 162 158 153 152 147 116 83 85 55 88 36 120 86 125 133 152 147 145 189 228 208 175 178 199 274
46 46 34 17 14 17 14 8 357 344 338 318 333 137 152 164 131 161 166 164 167 168 166 168 153 129 125 110 98 91 146 91 84 130 139 148 160 184 184 160 159 172 189 199 270
350 41 37 26 13 3 2 359 354 347 333 316 310 166 165 152 185 193 175 170 172 175 172 175 176 153 114 81 89 119 112 110 104 107 101 131 192 184 190 170 172 183 183 191 248
276 335 16 24 21 2 355 344 340 346 349 340 303 158 147 162 158 173 173 179 178 178 174 155 145 160 126 102 118 127 83 41 189 170 158 115 277 231 194 182 184 188 186 193 213
256 271 295 319 356 356 351 344 335 326 32 11 101 143 118 142 154 146 148 167 176 173 175 167 156 126 100 118 80 74 68 118 233 165 189 132 265 235 194 184 189 189 182 187 195
272 283 283 276 299 325 337 344 356 339 146 110 111 138 115 123 148 148 143 151 159 166 162 159 157 94 128 106 60 17 203 196 266 200 134 168 265 253 179 192 198 196 192 189 196
273 284 270 264 304 333 338 339 36 84 83 90 88 121 133 141 143 147 141 132 123 144 140 162 107 91 63 84 205 190 199 228 224 209 170 187 258 263 194 204 213 205 196 190 197
257 254 254 268 290 323 354 333 204 238 13 77 349 108 121 134 141 158 150 130 138 119 134 161 124 189 197 180 127 126 143 263 208 179 156 219 260 224 213 221 224 213 201 193 193
252 254 255 271 286 302 348 3 48 351 68 337 217 165 169 155 131 156 161 141 149 143 106 21 226 260 140 181 183 132 190 268 263 119 174 323 269 247 209 224 217 213 203 192 188
248 259 258 263 268 260 289 176 66 1 76 354 85 142 170 180 147 152 168 132 107 133 140 162 315 332 254 155 149 160 181 197 239 63 267 339 279 232 235 224 214 219 214 197 193
246 244 243 241 256 228 183 171 71 354 63 217 119 15 141 158 61 138 155 142 42 166 149 97 331 139 123 138 68 206 176 135 117 78 247 126 280 289 218 231 207 197 204 194 190
234 218 203 199 199 184 169 117 31 14 345 84 128 133 124 134 134 35 147 103 139 125 106 225 49 82 127 130 345 185 49 125 125 123 8 225 342 261 134 252 222 201 194 192 191
234 207 198 201 194 186 161 132 106 49 254 266 112 130 105 115 105 118 133 96 111 87 43 86 72 60 105 47 355 141 87 57 71 90 273 210 181 231 196 215 206 181 188 188 190
251 201 193 199 202 188 193 146 61 170 317 242 186 158 151 149 112 165 156 154 152 97 193 11 14 13 103 90 18 66 96 350 328 344 251 40 198 261 265 244 212 184 181 186 190
300 203 191 196 190 188 182 66 167 227 204 198 145 120 154 144 138 183 120 176 229 105 125 152 295 176 100 49 182 185 177 163 236 246 294 308 237 244 238 291 229 201 187 186 189
336 210 195 196 194 193 173 178 197 200 166 160 73 107 248 112 138 127 193 244 221 184 174 126 40 15 43 19 92 198 211 163 83 150 323 232 282 304 221 254 147 161 177 186 192
18 228 194 187 196 182 124 222 207 183 145 130 162 148 167 190 120 166 189 222 265 206 41 195 94 17 317 180 31 161 168 75 6 267 274 281 263 238 256 234 149 165 179 182 192
160 210 192 183 190 184 202 215 223 221 178 149 188 139 158 161 156 189 203 298 333 125 148 147 97 74 72 208 182 141 194 135 181 190 221 306 265 225 254 203 195 193 189 186 191
193 258 184 180 156 211 209 179 199 224 170 106 95 106 147 155 152 204 195 228 1 178 158 174 114 190 210 229 196 205 222 173 156 233 240 220 262 6 238 256 188 194 194 195 197
273 261 186 183 198 210 112 319 263 181 235 146 159 162 105 166 137 185 175 35 21 62 161 194 203 79 330 17 15 208 203 229 340 205 209 212 258 57 359 317 207 182 190 196 198
258 179 229 218 206 209 165 217 221 197 208 144 113 98 83 117 35 158 168 37 8 58 124 102 185 191 191 179 136 189 202 202 210 243 253 241 269 265 291 303 244 197 200 201 204
247 212 209 213 223 193 212 181 212 209 205 186 209 193 161 177 136 176 134 144 64 35 41 109 215 219 270 172 168 206 199 188 195 222 230 262 258 262 258 256 236 233 208 200 203
217 333 339 262 289 183 216 245 173 209 147 215 141 196 191 196 193 191 156 162 194 150 155 160 254 105 299 239 219 247 240 236 231 233 245 252 265 264 270 266 255 222 205 201 203
230 295 326 298 299 165 223 205 184 162 286 239 200 187 208 227 248 268 212 195 165 166 179 169 169 132 255 333 139 287 221 220 213 203 223 238 246 267 265 260 251 228 219 214 214
Wind_Speed_850mb
12 11 9 8 6 6 7 7 8 9 9 9 7 4 5 11 14 12 9 10 16 21 22 26 27 21 16 9 6 3 9 5 10 14 8 16 9 8 10 16 8 6 12 16 12
12 14 14 12 10 8 7 8 8 9 9 8 6 3 8 9 11 10 6 17 22 24 27 26 24 18 9 6 6 10 7 6 3 6 11 18 10 19 10 12 9 18 19 14 10
9 11 14 15 14 12 10 9 8 8 8 8 5 3 7 11 7 4 8 16 24 27 27 29 21 13 9 8 10 7 7 8 8 9 32 24 14 9 20 6 18 27 25 15 6
12 11 12 12 14 14 12 12 10 8 9 7 4 2 8 12 6 4 8 16 23 27 28 27 18 10 8 8 7 12 11 3 3 15 19 24 23 11 21 8 17 27 21 10 5
10 12 12 12 12 13 13 13 12 10 8 7 4 2 11 7 6 1 8 16 22 28 26 25 21 13 12 11 8 8 7 10 12 16 22 25 11 11 18 25 29 27 19 10 3
2 7 11 13 12 13 13 13 14 13 8 4 2 3 9 6 3 2 7 16 21 27 25 25 16 15 19 8 7 10 16 12 8 9 7 7 5 8 24 34 31 25 16 9 3
5 4 5 9 11 14 16 17 14 11 6 3 0 4 6 7 3 6 7 14 22 24 24 23 30 13 20 12 20 25 9 6 3 7 5 7 9 16 26 42 35 28 19 15 7
11 6 9 5 8 11 15 19 15 4 3 3 2 5 7 5 5 7 8 13 19 21 23 22 19 19 11 32 11 8 9 4 5 13 5 11 16 4 31 48 38 32 29 24 14
21 20 16 12 10 11 15 18 9 3 0 3 3 5 7 5 6 8 8 12 19 21 23 24 20 13 17 12 7 9 5 7 4 26 6 9 12 2 43 44 37 37 36 33 20
19 16 15 12 11 9 14 8 4 5 7 8 6 5 6 3 6 9 14 16 10 25 23 11 8 8 6 4 10 13 8 8 8 14 10 9 23 8 45 43 42 42 43 39 26
24 15 13 9 8 9 9 2 1 3 5 3 2 4 7 8 10 9 15 13 24 9 6 4 5 14 20 12 7 12 4 4 5 8 9 15 20 15 44 44 42 43 47 44 30
35 27 22 21 15 10 8 3 4 1 1 4 2 3 5 10 6 12 16 8 8 5 10 11 8 3 14 11 5 4 2 7 2 4 7 4 23 19 35 47 66 60 56 53 41
43 40 35 25 17 10 4 2 3 8 4 3 2 6 3 8 3 9 15 6 5 9 8 10 3 8 3 8 11 5 8 6 4 4 6 8 17 12 11 42 49 63 63 64 52
26 27 25 13 13 12 10 4 4 8 8 4 2 2 5 6 4 7 12 8 7 10 12 4 3 5 3 4 5 7 4 5 9 4 8 3 12 10 8 11 22 48 65 71 59
19 18 18 21 9 12 9 5 4 3 5 2 4 5 7 5 9 4 7 3 11 7 9 7 2 2 4 5 3 5 3 6 5 5 6 6 3 14 2 11 22 43 68 80 66
18 20 22 26 21 12 8 8 5 10 12 1 3 7 6 3 4 8 3 5 9 9 11 4 2 4 4 6 6 8 6 7 8 6 5 18 15 9 12 18 4 31 57 81 71
10 23 29 30 27 22 13 11 8 7 6 5 6 8 7 6 3 4 8 6 9 9 2 5 3 3 4 8 9 5 5 7 8 4 12 6 4 21 18 15 10 34 56 78 72
14 25 32 34 28 28 24 6 8 7 8 5 6 7 9 9 1 4 5 3 8 5 5 11 7 5 2 3 5 8 5 10 14 6 9 2 13 12 6 11 16 44 64 75 74
10 16 33 37 33 31 21 5 15 14 14 17 5 8 2 3 8 6 8 6 11 17 11 8 2 3 8 4 2 7 8 1 6 2 3 11 14 20 6 10 9 39 59 73 78
4 5 26 32 38 32 5 17 9 9 9 7 13 4 11 8 6 6 10 8 6 14 3 9 7 3 5 0 6 4 1 8 5 4 11 11 10 16 11 10 8 19 43 59 74
3 6 21 33 32 15 9 12 10 11 10 11 10 9 8 11 13 8 8 4 5 4 8 6 6 0 5 11 14 3 4 2 3 7 7 7 11 12 7 14 24 27 46 64 76
5 3 11 41 10 7 13 12 7 6 4 5 6 5 10 12 9 9 12 8 6 7 14 7 8 6 14 4 7 4 8 10 7 9 8 5 13 5 6 9 30 42 54 65 75
2 4 10 40 12 8 3 4 2 5 6 7 5 4 4 12 5 9 7 7 12 2 11 9 2 3 9 5 5 8 8 6 2 1 11 4 11 4 9 7 17 32 41 56 68
1 4 6 22 3 6 11 11 21 11 4 6 8 8 7 3 2 10 6 7 16 3 6 12 6 12 12 8 9 9 10 10 17 6 16 34 50 42 21 9 7 27 49 59 69
4 3 6 6 8 3 1 6 24 9 5 11 3 10 12 7 4 10 8 7 4 5 6 5 8 8 12 8 10 10 12 17 23 33 19 26 42 56 33 31 37 49 55 64 73
2 3 7 4 1 13 18 7 8 18 12 9 10 13 11 13 13 13 12 7 9 7 8 1 4 5 8 12 17 27 30 29 36 36 41 43 60 36 69 59 36 52 63 70 81
13 6 5 5 3 6 8 16 9 8 7 20 10 11 12 11 16 9 16 16 15 15 15 11 8 5 9 6 4 17 33 41 19 15 40 34 57 42 38 31 43 51 68 78 88
Wind_Direction_850mb
68 61 47 34 16 359 351 348 354 4 10 35 48 87 121 151 156 159 153 139 136 130 130 134 137 130 122 106 75 97 62 134 181 162 195 173 133 138 138 138 120 122 147 146 186
57 48 43 37 23 9 358 348 344 352 354 11 38 73 156 144 146 144 139 145 143 138 134 142 139 131 95 78 43 70 89 182 220 193 171 174 158 144 147 134 97 122 136 170 223
48 42 34 32 27 14 4 355 345 343 347 345 19 55 164 162 150 136 142 152 152 148 141 146 134 103 78 56 30 56 145 177 7 209 159 148 144 154 141 239 197 186 166 189 246
47 40 25 22 27 24 14 5 350 341 335 329 358 68 157 162 178 181 154 158 162 158 153 152 147 116 83 85 55 88 36 120 86 125 133 152 147 145 189 228 208 175 178 199 274
46 46 34 17 14 17 14 8 357 344 338 318 333 137 152 164 131 161 166 164 167 168 166 168 153 129 125 110 98 91 146 91 84 130 139 148 160 184 184 160 159 172 189 199 270
350 41 37 26 13 3 2 359 354 347 333 316 310 166 165 152 185 193 175 170 172 175 172 175 176 153 114 81 89 119 112 110 104 107 101 131 192 184 190 170 172 183 183 191 248
276 335 16 24 21 2 355 344 340 346 349 340 303 158 147 162 158 173 173 179 178 178 174 155 145 160 126 102 118 127 83 41 189 170 158 115 277 231 194 182 184 188 186 193 213
256 271 295 319 356 356 351 344 335 326 32 11 101 143 118 142 154 146 148 167 176 173 175 167 156 126 100 118 80 74 68 118 233 165 189 132 265 235 194 184 189 189 182 187 195
272 283 283 276 299 325 337 344 356 339 146 110 111 138 115 123 148 148 143 151 159 166 162 159 157 94 128 106 60 17 203 196 266 200 134 168 265 253 179 192 198 196 192 189 196
273 284 270 264 304 333 338 339 36 84 83 90 88 121 133 141 143 147 141 132 123 144 140 162 107 91 63 84 205 190 199 228 224 209 170 187 258 263 194 204 213 205 196 190 197
257 254 254 268 290 323 354 333 204 238 13 77 349 108 121 134 141 158 150 130 138 119 134 161 124 189 197 180 127 126 143 263 208 179 156 219 260 224 213 221 224 213 201 193 193
252 254 255 271 286 302 348 3 48 351 68 337 217 165 169 155 131 156 161 141 149 143 106 21 226 260 140 181 183 132 190 268 263 119 174 323 269 247 209 224 217 213 203 192 188
248 259 258 263 268 260 289 176 66 1 76 354 85 142 170 180 147 152 168 132 107 133 140 162 315 332 254 155 149 160 181 197 239 63 267 339 279 232 235 224 214 219 214 197 193
246 244 243 241 256 228 183 171 71 354 63 217 119 15 141 158 61 138 155 142 42 166 149 97 331 139 123 138 68 206 176 135 117 78 247 126 280 289 218 231 207 197 204 194 190
234 218 203 199 199 184 169 117 31 14 345 84 128 133 124 134 134 35 147 103 139 125 106 225 49 82 127 130 345 185 49 125 125 123 8 225 342 261 134 252 222 201 194 192 191
234 207 198 201 194 186 161 132 106 49 254 266 112 130 105 115 105 118 133 96 111 87 43 86 72 60 105 47 355 141 87 57 71 90 273 210 181 231 196 215 206 181 188 188 190
251 201 193 199 202 188 193 146 61 170 317 242 186 158 151 149 112 165 156 154 152 97 193 11 14 13 103 90 18 66 96 350 328 344 251 40 198 261 265 244 212 184 181 186 190
300 203 191 196 190 188 182 66 167 227 204 198 145 120 154 144 138 183 120 176 229 105 125 152 295 176 100 49 182 185 177 163 236 246 294 308 237 244 238 291 229 201 187 186 189
336 210 195 196 194 193 173 178 197 200 166 160 73 107 248 112 138 127 193 244 221 184 174 126 40 15 43 19 92 198 211 163 83 150 323 232 282 304 221 254 147 161 177 186 192
18 228 194 187 196 182 124 222 207 183 145 130 162 148 167 190 120 166 189 222 265 206 41 195 94 17 317 180 31 161 168 75 6 267 274 281 263 238 256 234 149 165 179 182 192
160 210 192 183 190 184 202 215 223 221 178 149 188 139 158 161 156 189 203 298 333 125 148 147 97 74 72 208 182 141 194 135 181 190 221 306 265 225 254 203 195 193 189 186 191
193 258 184 180 156 211 209 179 199 224 170 106 95 106 147 155 152 204 195 228 1 178 158 174 114 190 210 229 196 205 222 173 156 233 240 220 262 6 238 256 188 194 194 195 197
273 261 186 183 198 210 112 319 263 181 235 146 159 162 105 166 137 185 175 35 21 62 161 194 203 79 330 17 15 208 203 229 340 205 209 212 258 57 359 317 207 182 190 196 198
258 179 229 218 206 209 165 217 221 197 208 144 113 98 83 117 35 158 168 37 8 58 124 102 185 191 191 179 136 189 202 202 210 243 253 241 269 265 291 303 244 197 200 201 204
247 212 209 213 223 193 212 181 212 209 205 186 209 193 161 177 136 176 134 144 64 35 41 109 215 219 270 172 168 206 199 188 195 222 230 262 258 262 258 256 236 233 208 200 203
217 333 339 262 289 183 216 245 173 209 147 215 141 196 191 196 193 191 156 162 194 150 155 160 254 105 299 239 219 247 240 236 231 233 245 252 265 264 270 266 255 222 205 201 203
230 295 326 298 299 165 223 205 184 162 286 239 200 187 208 227 248 268 212 195 165 166 179 169 169 132 255 333 139 287 221 220 213 203 223 238 246 267 265 260 251 228 219 214 214